Time_in_sec,Mx,My,Mz
1314272302.35260153,-0.27156979,0.47970259,-0.81673080
1314272302.40075564,-0.26886407,0.48386827,-0.82072008
1314272302.45249391,-0.27126741,0.48200411,-0.82044530
1314272302.50153351,-0.27016479,0.48171264,-0.81785959
1314272302.55251575,-0.27088937,0.48145357,-0.81643963
1314272302.60061145,-0.26949063,0.48537403,-0.81970567
1314272302.65349913,-0.26879424,0.48194572,-0.81751788
1314272302.69352698,-0.26928714,0.48269635,-0.81662285
1314272302.75254774,-0.27014911,0.48487541,-0.81947416
1314272302.80047560,-0.26815248,0.48458368,-0.81776619
1314272302.85246420,-0.26981404,0.48068911,-0.81663799
1314272302.90238905,-0.26806745,0.48496875,-0.81856018
1314272302.95351529,-0.26846066,0.48321164,-0.81856954
1314272303.00151348,-0.27042261,0.48211452,-0.81986731
1314272303.05049968,-0.26970118,0.48157150,-0.81690347
1314272303.10480571,-0.27005923,0.48362604,-0.82038844
1314272303.15249133,-0.26951629,0.48145923,-0.81835145
1314272303.20192671,-0.26812747,0.48563290,-0.82175255
1314272303.25360942,-0.27241844,0.48110077,-0.81718755
1314272303.30270600,-0.26976216,0.48236147,-0.82009679
1314272303.35349512,-0.27293035,0.48022154,-0.81681222
1314272303.40558600,-0.26896766,0.48170319,-0.81818926
1314272303.45455909,-0.27089480,0.48122770,-0.81882632
1314272303.50487804,-0.26952803,0.48397458,-0.81823808
1314272303.55349112,-0.27022097,0.48169899,-0.81653601
1314272303.60447383,-0.26916683,0.48272213,-0.81913686
1314272303.65258932,-0.27009130,0.48144728,-0.81665945
1314272303.69425654,-0.27142838,0.48311701,-0.81847274
1314272303.75359845,-0.26849133,0.48510233,-0.81885064
1314272303.80454326,-0.26917222,0.48433229,-0.81676108
1314272303.85646677,-0.27027911,0.48193705,-0.81521446
1314272303.90593576,-0.27004796,0.48209164,-0.81812108
1314272303.94162321,-0.27058169,0.48197052,-0.81801796
1314272304.00445986,-0.27036050,0.48320916,-0.81642252
1314272304.05360770,-0.27045643,0.48320311,-0.81576461
1314272304.10197568,-0.26936451,0.48447034,-0.81770176
1314272304.15350246,-0.26946762,0.48132429,-0.81755161
1314272304.20147347,-0.27074808,0.48285753,-0.81843203
1314272304.25386643,-0.27059132,0.48006314,-0.81614703
1314272304.30559230,-0.27056080,0.48234349,-0.81762153
1314272304.35355401,-0.27055398,0.48045737,-0.81773984
1314272304.40447521,-0.26837572,0.48259151,-0.81948876
1314272304.45258546,-0.26959124,0.48283139,-0.81717187
1314272304.50445485,-0.26980147,0.48221895,-0.81850600
1314272304.55248880,-0.27030551,0.48033297,-0.81812274
1314272304.60160160,-0.27090970,0.48110488,-0.81909156
1314272304.65291929,-0.27051523,0.48057559,-0.81707513
1314272304.69364738,-0.27040219,0.48346844,-0.81709015
1314272304.75258207,-0.27051401,0.48346543,-0.81669849
1314272304.80171108,-0.27023405,0.48549554,-0.81855494
1314272304.85364223,-0.27124971,0.48056975,-0.81579030
1314272304.90166950,-0.27143133,0.48349452,-0.81847566
1314272304.95249271,-0.26998726,0.48346224,-0.81693381
1314272305.00458455,-0.27000323,0.48246005,-0.81732529
1314272305.05445671,-0.26992178,0.48219317,-0.81599200
1314272305.10152316,-0.26998144,0.48170197,-0.81705308
1314272305.15370822,-0.27042219,0.48196441,-0.81761080
1314272305.20448661,-0.26799107,0.48332065,-0.81748223
1314272305.25249028,-0.27010870,0.48155189,-0.81467122
1314272305.30155373,-0.26918572,0.48393351,-0.81476891
1314272305.35245061,-0.26999092,0.48180506,-0.81493169
1314272305.40059733,-0.26927218,0.48382440,-0.81623238
1314272305.45357585,-0.27022046,0.48255411,-0.81415433
1314272305.50153279,-0.26963842,0.48369563,-0.81558895
1314272305.55259466,-0.27087304,0.48130041,-0.81391692
1314272305.60046172,-0.26761627,0.48530823,-0.81548560
1314272305.65246677,-0.27044517,0.48166871,-0.81349725
1314272305.70161247,-0.27012756,0.48193243,-0.81494045
1314272305.75245547,-0.26966360,0.48063594,-0.81185305
1314272305.80155039,-0.27022940,0.48268145,-0.81428844
1314272305.85042858,-0.27092028,0.48115942,-0.81245923
1314272305.90055013,-0.26955199,0.48380473,-0.81412548
1314272305.94162512,-0.26904479,0.48214740,-0.81262493
1314272306.00147462,-0.26974383,0.48379266,-0.81280965
1314272306.05360794,-0.26905531,0.48137110,-0.81062979
1314272306.10196877,-0.26903570,0.48403049,-0.81224042
1314272306.14145327,-0.26919332,0.48277968,-0.81277078
1314272306.20159912,-0.26886579,0.48279020,-0.81407887
1314272306.25574541,-0.26899105,0.48339367,-0.81156981
1314272306.30147862,-0.27000567,0.48369268,-0.81494653
1314272306.35250902,-0.27030146,0.48267084,-0.81323117
1314272306.40446401,-0.26814803,0.48493540,-0.81538051
1314272306.45253158,-0.27136204,0.48154768,-0.81301796
1314272306.50457764,-0.27028799,0.48306963,-0.81522334
1314272306.55246091,-0.26996967,0.48102266,-0.81240404
1314272306.60486341,-0.27104050,0.48130804,-0.81445718
1314272306.65248489,-0.26951563,0.48432478,-0.81571931
1314272306.69361234,-0.27014443,0.48206133,-0.81520766
1314272306.75360203,-0.26871613,0.48404253,-0.81368160
1314272306.80447960,-0.27051094,0.48509836,-0.81644511
1314272306.85360622,-0.26898268,0.48140597,-0.81394261
1314272306.90444613,-0.26982185,0.48270106,-0.81652069
1314272306.95246601,-0.27038744,0.48158079,-0.81707531
1314272307.00463367,-0.27050319,0.48208115,-0.81668764
1314272307.04843450,-0.27223516,0.48008487,-0.81650621
1314272307.10494494,-0.27023771,0.48383832,-0.81655288
1314272307.15339303,-0.26847106,0.48444578,-0.81632394
1314272307.20447922,-0.26712167,0.48646647,-0.81838471
1314272307.25393200,-0.27085954,0.48169917,-0.81590909
1314272307.30195785,-0.26870513,0.48383787,-0.81805748
1314272307.35359216,-0.27068415,0.48169002,-0.81523567
1314272307.40445375,-0.27151930,0.48348698,-0.81768465
1314272307.45248342,-0.27171960,0.48262131,-0.81888366
1314272307.50175500,-0.27044308,0.48159143,-0.81800723
1314272307.55351782,-0.26928920,0.48194283,-0.81675005
1314272307.60186625,-0.26839343,0.48485667,-0.81950659
1314272307.65384841,-0.26909530,0.48270845,-0.81793869
1314272307.70170975,-0.26892784,0.48270079,-0.81739843
1314272307.75374770,-0.27126107,0.48109892,-0.81818289
1314272307.80546570,-0.26930538,0.48410642,-0.81902236
1314272307.85247135,-0.27060166,0.48046649,-0.81853861
1314272307.90160823,-0.26985815,0.48135018,-0.81956410
1314272307.94547868,-0.26892442,0.48134235,-0.81977612
1314272308.00457764,-0.26910317,0.48371518,-0.81794661
1314272308.05360460,-0.27219284,0.48085508,-0.81796885
1314272308.10158300,-0.27014631,0.48248741,-0.81972164
1314272308.15248799,-0.27019659,0.48171872,-0.81839216
1314272308.20448256,-0.26948085,0.48311037,-0.81982100
1314272308.25394154,-0.27022231,0.48298019,-0.81866831
1314272308.30147767,-0.26919061,0.48373190,-0.81941104
1314272308.35359502,-0.26990882,0.48173684,-0.82036585
1314272308.40448761,-0.26990572,0.48336977,-0.82011247
1314272308.45361137,-0.27020249,0.48247376,-0.81839806
1314272308.50157261,-0.26938492,0.48311642,-0.82047892
1314272308.55350709,-0.27112940,0.48059550,-0.81830430
1314272308.60157824,-0.26945314,0.48159721,-0.81954283
1314272308.65659356,-0.26987249,0.48308772,-0.81732249
1314272308.70064712,-0.26966983,0.48171553,-0.81862742
1314272308.75347018,-0.27057374,0.48196900,-0.81788480
1314272308.80080652,-0.27023661,0.48388690,-0.82106382
1314272308.85356760,-0.27114516,0.48260900,-0.81832016
1314272308.90146327,-0.26989233,0.48359412,-0.81759268
1314272308.94446635,-0.27088973,0.48260891,-0.81857091
1314272309.00051355,-0.27043703,0.48284683,-0.81775087
1314272309.05412316,-0.26958421,0.48396096,-0.81691450
1314272309.10445309,-0.26906380,0.48486295,-0.81941217
1314272309.15361047,-0.26959759,0.48373657,-0.81943429
1314272309.20178390,-0.26901814,0.48410028,-0.81874061
1314272309.25249934,-0.26883686,0.48333606,-0.81806129
1314272309.30146217,-0.26782104,0.48409083,-0.81907028
1314272309.35255027,-0.27143732,0.48324436,-0.81860685
1314272309.40564203,-0.26890633,0.48410329,-0.81913227
1314272309.45660472,-0.26906449,0.48282820,-0.81740713
1314272309.50516367,-0.26948041,0.48296025,-0.81756449
1314272309.55249476,-0.26823077,0.48130724,-0.81721568
1314272309.60445428,-0.26777765,0.48574042,-0.82040673
1314272309.65361309,-0.27044505,0.48184311,-0.81800920
1314272309.70147514,-0.26827148,0.48144066,-0.81788230
1314272309.74244642,-0.26903883,0.48056152,-0.81725621
1314272309.80162835,-0.27121133,0.48184332,-0.81725693
1314272309.85494161,-0.27065954,0.48472542,-0.81671613
1314272309.90161538,-0.26935664,0.48346359,-0.81769383
1314272309.94106174,-0.26929751,0.48309970,-0.81901443
1314272310.00455785,-0.27022377,0.48408696,-0.81628859
1314272310.05259061,-0.27015829,0.48281792,-0.81534678
1314272310.10218120,-0.26885760,0.48497355,-0.81820726
1314272310.15253997,-0.27061832,0.48361105,-0.81843019
1314272310.20166111,-0.26877770,0.48297217,-0.81938189
1314272310.25388241,-0.27005661,0.48005843,-0.81624919
1314272310.30167055,-0.26913801,0.48309356,-0.81860733
1314272310.35360599,-0.26982433,0.48209766,-0.81890440
1314272310.40445876,-0.26894805,0.48436257,-0.81979990
1314272310.45258689,-0.26898834,0.48434588,-0.81821007
1314272310.50199103,-0.26958865,0.48360923,-0.81930017
1314272310.55249882,-0.27078748,0.48170978,-0.81696641
1314272310.60165930,-0.26988685,0.48298919,-0.81984323
1314272310.65651369,-0.27049574,0.48122454,-0.81893617
1314272310.70446634,-0.26900831,0.48284185,-0.81873071
1314272310.75244641,-0.27087799,0.48009357,-0.81868428
1314272310.80097318,-0.26935300,0.48512077,-0.81969595
1314272310.85247636,-0.27020967,0.47933379,-0.81890583
1314272310.90171504,-0.27026993,0.48399454,-0.81934184
1314272310.94446230,-0.27180597,0.48351741,-0.82022190
1314272311.00458837,-0.26995590,0.48360628,-0.81865776
1314272311.05646849,-0.27095196,0.48133990,-0.81750369
1314272311.10447311,-0.27085337,0.48312896,-0.82016468
1314272311.15264034,-0.27008799,0.48425981,-0.82079279
1314272311.20458698,-0.26804116,0.48373157,-0.82053953
1314272311.25259113,-0.26936403,0.48348936,-0.82008249
1314272311.30200505,-0.26840144,0.48385298,-0.81976497
1314272311.35259128,-0.27053839,0.48261490,-0.81947958
1314272311.40447283,-0.26806161,0.48320848,-0.81867945
1314272311.45662904,-0.27064162,0.48363987,-0.82108510
1314272311.50160980,-0.26869556,0.48474002,-0.82005364
1314272311.55261421,-0.27104333,0.48185998,-0.81897211
1314272311.60047460,-0.26963741,0.48273894,-0.82022518
1314272311.65347385,-0.27027804,0.48198560,-0.81972539
1314272311.70157242,-0.27004629,0.48400053,-0.82012516
1314272311.75248575,-0.27182263,0.48048049,-0.81860834
1314272311.80054164,-0.26890692,0.48224297,-0.82163918
1314272311.85382175,-0.27073422,0.48210096,-0.81829298
1314272311.90049434,-0.26976034,0.48009932,-0.82034528
1314272311.94152951,-0.26928857,0.48297232,-0.81888032
1314272312.00094032,-0.26787132,0.48332211,-0.81774080
1314272312.05251098,-0.27054095,0.48183706,-0.81735128
1314272312.10259652,-0.27093771,0.48477861,-0.82137573
1314272312.15409899,-0.27077398,0.48210856,-0.81895858
1314272312.20445037,-0.26840502,0.48320100,-0.81763762
1314272312.25244451,-0.27073234,0.48084405,-0.81841618
1314272312.30546498,-0.26903799,0.48460668,-0.81901079
1314272312.35247397,-0.26898861,0.48032498,-0.81871092
1314272312.40445876,-0.26888356,0.48321936,-0.81885904
1314272312.45245838,-0.26964733,0.48299217,-0.82036024
1314272312.50247216,-0.26909673,0.48298442,-0.82019615
1314272312.55245376,-0.26991731,0.48171407,-0.81824350
1314272312.60446477,-0.27104771,0.48251349,-0.82123256
1314272312.65247655,-0.26909477,0.48273271,-0.82019418
1314272312.70156837,-0.27129126,0.48200867,-0.82084471
1314272312.75245953,-0.27010465,0.48122290,-0.81917924
1314272312.80486250,-0.26840577,0.48551169,-0.82190019
1314272312.85258365,-0.26993325,0.48071191,-0.81863499
1314272312.90161371,-0.26947439,0.48237959,-0.82207054
1314272312.95247936,-0.26934126,0.48260543,-0.81980926
1314272313.00460434,-0.26962841,0.48361683,-0.81996584
1314272313.05539322,-0.27120671,0.48337469,-0.81925797
1314272313.10154653,-0.26872244,0.48411688,-0.82058120
1314272313.15350676,-0.26905510,0.48171991,-0.81965375
1314272313.20450377,-0.27047327,0.48250118,-0.82066905
1314272313.25251460,-0.26887217,0.48185936,-0.82110369
1314272313.30190921,-0.26941469,0.48387602,-0.82088423
1314272313.35360694,-0.27130178,0.48123235,-0.81884956
1314272313.40540600,-0.26814306,0.48347536,-0.82001275
1314272313.45392656,-0.26906091,0.48348019,-0.81953442
1314272313.50545168,-0.26939029,0.48389575,-0.82274032
1314272313.55349827,-0.27137429,0.48137188,-0.82004869
1314272313.60447073,-0.26850104,0.48653516,-0.82337254
1314272313.65331388,-0.26884136,0.48197910,-0.82057214
1314272313.69379163,-0.26985747,0.48338494,-0.82156914
1314272313.75258207,-0.26808590,0.48336315,-0.82133532
1314272313.80152011,-0.26762509,0.48560998,-0.82013172
1314272313.85379457,-0.27032930,0.48134273,-0.81839693
1314272313.90156293,-0.26967707,0.48375177,-0.82076561
1314272313.94160414,-0.27008814,0.48224938,-0.82104325
1314272314.00446439,-0.26960751,0.48398978,-0.81956941
1314272314.05258942,-0.27031177,0.48224336,-0.82025993
1314272314.10151267,-0.27026334,0.48527420,-0.82134098
1314272314.15247488,-0.26803419,0.48385590,-0.82040739
1314272314.20156527,-0.27079418,0.48377031,-0.82136011
1314272314.25655794,-0.27121094,0.47985718,-0.81976283
1314272314.30505395,-0.26983476,0.48149577,-0.82142121
1314272314.35364866,-0.26973537,0.48197937,-0.81969446
1314272314.40048981,-0.26871288,0.48501903,-0.82257736
1314272314.45248151,-0.26804727,0.48147094,-0.82092112
1314272314.50155163,-0.27070922,0.48315018,-0.82227933
1314272314.55248713,-0.27050772,0.48072422,-0.81919849
1314272314.60060263,-0.27071083,0.48224652,-0.82015002
1314272314.65648794,-0.26982933,0.48172164,-0.81903458
1314272314.70062113,-0.26887006,0.48361811,-0.82085127
1314272314.75359225,-0.27110958,0.48008910,-0.81803411
1314272314.80051947,-0.26818940,0.48220330,-0.81867927
1314272314.85248399,-0.27109256,0.48197067,-0.81751639
1314272314.90152907,-0.26725468,0.48206958,-0.81889033
1314272314.95436716,-0.27005592,0.48209316,-0.81825423
1314272315.00150728,-0.26930144,0.48360306,-0.81901842
1314272315.05595374,-0.26898608,0.48193362,-0.81620204
1314272315.10160470,-0.26908326,0.48421401,-0.81755114
1314272315.15290999,-0.27071637,0.48184621,-0.81802469
1314272315.20147085,-0.27037227,0.48388845,-0.82107157
1314272315.25360227,-0.26937822,0.48105589,-0.81608522
1314272315.30148029,-0.26990169,0.48387161,-0.81998330
1314272315.35246682,-0.27036366,0.48057100,-0.81680113
1314272315.40161300,-0.26968718,0.48282537,-0.81651396
1314272315.45423388,-0.27045995,0.48172030,-0.81827450
1314272315.50118160,-0.26996490,0.48272842,-0.81891710
1314272315.55349541,-0.26963168,0.48080426,-0.81583250
1314272315.59243822,-0.26954597,0.48322409,-0.81863153
1314272315.65353060,-0.26778728,0.48383307,-0.81853580
1314272315.69351864,-0.26785329,0.48507786,-0.81722212
1314272315.75258136,-0.27023202,0.48624906,-0.81842774
1314272315.80160165,-0.27043238,0.48437819,-0.81975198
1314272315.85464311,-0.26918539,0.48094213,-0.81740004
1314272315.90562463,-0.27025017,0.48248288,-0.81919688
1314272315.94448304,-0.26896167,0.48195335,-0.81805813
1314272316.00546193,-0.26811787,0.48218963,-0.81748110
1314272316.05375576,-0.26922899,0.48245832,-0.81794447
1314272316.10170507,-0.26895297,0.48499179,-0.81980485
1314272316.15253997,-0.27088270,0.48373848,-0.81831354
1314272316.20476317,-0.26887757,0.48346952,-0.81872791
1314272316.25637984,-0.27205861,0.48112950,-0.82021856
1314272316.30469084,-0.26923338,0.48311180,-0.82020485
1314272316.35250640,-0.27012104,0.48220688,-0.81706476
1314272316.40462708,-0.26972243,0.48235387,-0.81943113
1314272316.45258689,-0.26851335,0.48284474,-0.81949854
1314272316.50181031,-0.26858482,0.48386365,-0.82057148
1314272316.55245852,-0.27080983,0.48060754,-0.81974554
1314272316.60161185,-0.26847601,0.48323897,-0.82109129
1314272316.65645361,-0.26991963,0.48312113,-0.82037675
1314272316.70450926,-0.27169520,0.48264101,-0.82073975
1314272316.75249124,-0.27171215,0.48176467,-0.82113224
1314272316.80551314,-0.26864776,0.48490530,-0.82376683
1314272316.85260296,-0.27007034,0.48098943,-0.82090020
1314272316.90165544,-0.27052888,0.48251182,-0.82160097
1314272316.94149256,-0.27039331,0.48150504,-0.82171845
1314272317.00451541,-0.27139211,0.48263183,-0.82019174
1314272317.05604959,-0.26913351,0.48261449,-0.82085884
1314272317.10446906,-0.26806200,0.48436382,-0.82081074
1314272317.15259719,-0.27049506,0.48325926,-0.82094127
1314272317.20447779,-0.26841393,0.48249754,-0.82240897
1314272317.25275874,-0.27052563,0.47997370,-0.81959194
1314272317.30162716,-0.26858622,0.48413962,-0.82282895
1314272317.35248876,-0.27068853,0.48050746,-0.82225853
1314272317.40151834,-0.26977056,0.48251310,-0.82248640
1314272317.44616342,-0.26889110,0.48123470,-0.82149810
1314272317.50449204,-0.27026045,0.48389146,-0.82146323
1314272317.55244589,-0.26972833,0.48310891,-0.81943709
1314272317.60481143,-0.26659986,0.48525643,-0.82338732
1314272317.65244508,-0.26857588,0.48373628,-0.82043737
1314272317.69352388,-0.26720068,0.48550072,-0.82209671
1314272317.75263143,-0.26717782,0.48562199,-0.82169831
1314272317.80060315,-0.26930681,0.48438239,-0.82127982
1314272317.85457349,-0.26991478,0.48148668,-0.82049704
1314272317.90169072,-0.26788211,0.48387557,-0.82238883
1314272317.94151187,-0.26847410,0.48198205,-0.82121456
1314272318.00046897,-0.26890874,0.48450509,-0.82139069
1314272318.05376101,-0.26895621,0.48134843,-0.82030869
1314272318.10159373,-0.26878503,0.48400322,-0.82164526
1314272318.15251708,-0.27023661,0.48388690,-0.82106382
1314272318.20460987,-0.27040815,0.48238745,-0.82185847
1314272318.25661635,-0.26973015,0.47918957,-0.81768346
1314272318.30468893,-0.26819575,0.48310846,-0.82094169
1314272318.35249519,-0.26772124,0.48258826,-0.81984943
1314272318.40149808,-0.26818022,0.48426080,-0.82280672
1314272318.44161391,-0.27040476,0.48185980,-0.81959903
1314272318.50192308,-0.26965785,0.48221585,-0.81836510
1314272318.55250883,-0.27028257,0.48145947,-0.81759912
1314272318.60461497,-0.26940432,0.48347270,-0.81849265
1314272318.65380406,-0.27008265,0.48348048,-0.81853133
1314272318.69361377,-0.27063242,0.48135194,-0.81894493
1314272318.75247669,-0.26913300,0.48346958,-0.81847715
1314272318.80445457,-0.26874971,0.48547992,-0.81860286
1314272318.85360742,-0.26890498,0.48282209,-0.81699997
1314272318.90210414,-0.26795578,0.48296133,-0.81920224
1314272318.94458795,-0.26981124,0.48448259,-0.81839067
1314272319.00465322,-0.26954553,0.48307395,-0.81637508
1314272319.05631042,-0.26950672,0.48419744,-0.81558514
1314272319.10451579,-0.27017751,0.48435381,-0.81774724
1314272319.15258574,-0.27048472,0.48285595,-0.81854963
1314272319.20159793,-0.26821515,0.48346478,-0.81895542
1314272319.25352383,-0.26998243,0.48182780,-0.81705403
1314272319.30195808,-0.27007377,0.48234791,-0.81852245
1314272319.35397768,-0.26908994,0.48192909,-0.81567723
1314272319.40153694,-0.26991928,0.48196578,-0.81824547
1314272319.45402908,-0.26886034,0.48218527,-0.81632942
1314272319.50562978,-0.26982784,0.48245090,-0.81665188
1314272319.55363131,-0.27140579,0.48105344,-0.81381279
1314272319.60450983,-0.26976362,0.48346823,-0.81771708
1314272319.65361905,-0.26795498,0.48165584,-0.81481451
1314272319.69387650,-0.26915598,0.48317391,-0.81436360
1314272319.75360680,-0.26979688,0.48458111,-0.81586987
1314272319.80465555,-0.26781109,0.48567367,-0.81417274
1314272319.85071468,-0.26985988,0.48027211,-0.81292284
1314272319.90127373,-0.26979598,0.48345006,-0.81599414
1314272319.94163465,-0.26846972,0.48316458,-0.81419170
1314272320.00446725,-0.27029148,0.48342288,-0.81297082
1314272320.05258727,-0.27194095,0.48203909,-0.81132990
1314272320.10154700,-0.26931351,0.48292834,-0.81476873
1314272320.15250230,-0.27036807,0.48205531,-0.81442440
1314272320.19342422,-0.26980469,0.48041162,-0.81424743
